Wetterdaten: Donnerstag, 12.07.2012
Datum Zeit Temperatur Luftfeuchte Regen Wind Richtung Richtung Taupunkt Windchill Windben
12.07.2012 00:00 13,9 C 83 % 0,0 l/m 5,8 km/h (2 Bft) SO 135 11,1 C 14,1 C 7,6 km/h (2 Bft)
12.07.2012 00:05 13,9 C 83 % 0,0 l/m 5,8 km/h (2 Bft) O-SO 112 11,1 C 14,0 C 4,2 km/h (1 Bft)
12.07.2012 00:10 13,8 C 81 % 0,0 l/m 6,8 km/h (2 Bft) O-SO 112 10,6 C 13,7 C 8,7 km/h (2 Bft)
12.07.2012 00:15 13,8 C 81 % 0,0 l/m 7,1 km/h (2 Bft) O-SO 112 10,6 C 13,4 C 11,7 km/h (2 Bft)
12.07.2012 00:20 13,7 C 80 % 0,0 l/m 7,1 km/h (2 Bft) SO 135 10,3 C 13,3 C 13,2 km/h (3 Bft)
12.07.2012 00:25 13,7 C 80 % 0,0 l/m 6,8 km/h (2 Bft) O-SO 112 10,3 C 13,6 C 6,0 km/h (2 Bft)
12.07.2012 00:30 13,7 C 78 % 0,0 l/m 6,8 km/h (2 Bft) O-SO 112 9,9 C 13,5 C 13,8 km/h (3 Bft)
12.07.2012 00:35 13,6 C 77 % 0,0 l/m 6,9 km/h (2 Bft) S 180 9,6 C 13,3 C 7,7 km/h (2 Bft)
12.07.2012 00:40 13,7 C 75 % 0,0 l/m 8,2 km/h (2 Bft) O-SO 112 9,3 C 12,3 C 18,2 km/h (3 Bft)
12.07.2012 00:45 13,6 C 75 % 0,0 l/m 8,2 km/h (2 Bft) SO 135 9,3 C 12,5 C 11,9 km/h (2 Bft)
12.07.2012 00:50 13,6 C 75 % 0,0 l/m 7,7 km/h (2 Bft) S-SO 157 9,3 C 12,8 C 18,7 km/h (3 Bft)
12.07.2012 00:55 13,6 C 74 % 0,0 l/m 8,0 km/h (2 Bft) SO 135 9,1 C 12,6 C 10,5 km/h (2 Bft)
12.07.2012 01:00 13,5 C 75 % 0,0 l/m 7,6 km/h (2 Bft) S-SO 157 9,2 C 12,8 C 12,7 km/h (3 Bft)
12.07.2012 01:05 13,4 C 75 % 0,0 l/m 6,6 km/h (2 Bft) SO 135 9,1 C 13,5 C 4,3 km/h (1 Bft)
12.07.2012 01:10 13,4 C 75 % 0,0 l/m 5,5 km/h (1 Bft) O-SO 112 9,1 C 13,6 C 6,1 km/h (2 Bft)
12.07.2012 01:15 13,3 C 76 % 0,0 l/m 5,0 km/h (1 Bft) O 90 9,2 C 13,6 C 5,5 km/h (1 Bft)
12.07.2012 01:20 13,4 C 75 % 0,0 l/m 6,1 km/h (2 Bft) S-SW 202 9,1 C 13,6 C 5,1 km/h (1 Bft)
12.07.2012 01:25 13,3 C 75 % 0,0 l/m 6,1 km/h (2 Bft) O-SO 112 9,0 C 13,6 C 5,1 km/h (1 Bft)
12.07.2012 01:30 13,3 C 75 % 0,0 l/m 5,6 km/h (1 Bft) S-SO 157 9,0 C 13,6 C 7,2 km/h (2 Bft)
12.07.2012 01:35 13,3 C 75 % 0,0 l/m 5,6 km/h (1 Bft) S-SO 157 9,0 C 13,5 C 6,1 km/h (2 Bft)
12.07.2012 01:40 13,3 C 72 % 0,0 l/m 6,3 km/h (2 Bft) SO 135 8,4 C 13,4 C 5,0 km/h (1 Bft)
12.07.2012 01:45 13,2 C 73 % 0,0 l/m 6,3 km/h (2 Bft) O-SO 112 8,5 C 13,4 C 6,0 km/h (2 Bft)
12.07.2012 01:50 13,1 C 72 % 0,0 l/m 5,6 km/h (1 Bft) O 90 8,2 C 13,5 C 6,6 km/h (2 Bft)
12.07.2012 01:55 13,1 C 70 % 0,0 l/m 5,6 km/h (1 Bft) O-NO 67 7,8 C 13,4 C 12,1 km/h (2 Bft)
12.07.2012 02:00 13,1 C 69 % 0,0 l/m 6,0 km/h (2 Bft) SO 135 7,5 C 13,5 C 7,4 km/h (2 Bft)
12.07.2012 02:05 13,0 C 69 % 0,0 l/m 6,0 km/h (2 Bft) O 90 7,4 C 13,5 C 5,6 km/h (1 Bft)
12.07.2012 02:10 12,9 C 71 % 0,0 l/m 5,1 km/h (1 Bft) S-SO 157 7,8 C 13,3 C 4,8 km/h (1 Bft)
12.07.2012 02:15 12,9 C 69 % 0,0 l/m 5,3 km/h (1 Bft) SO 135 7,4 C 13,2 C 9,2 km/h (2 Bft)
12.07.2012 02:20 13,0 C 68 % 0,0 l/m 7,1 km/h (2 Bft) SO 135 7,2 C 12,5 C 13,2 km/h (3 Bft)
12.07.2012 02:25 13,1 C 66 % 0,0 l/m 8,0 km/h (2 Bft) S 180 6,9 C 11,8 C 5,8 km/h (2 Bft)
12.07.2012 02:30 13,0 C 67 % 0,0 l/m 8,0 km/h (2 Bft) SO 135 7,0 C 11,8 C 14,3 km/h (3 Bft)
12.07.2012 02:35 12,9 C 68 % 0,0 l/m 7,7 km/h (2 Bft) O-SO 112 7,1 C 12,0 C 10,9 km/h (2 Bft)
12.07.2012 02:40 12,8 C 68 % 0,0 l/m 9,0 km/h (2 Bft) S 180 7,0 C 11,0 C 7,2 km/h (2 Bft)
12.07.2012 02:45 12,9 C 67 % 0,0 l/m 9,0 km/h (2 Bft) S 180 6,9 C 10,9 C 11,3 km/h (2 Bft)
12.07.2012 02:50 12,8 C 68 % 0,0 l/m 8,4 km/h (2 Bft) O-SO 112 7,0 C 11,3 C 8,2 km/h (2 Bft)
12.07.2012 02:55 12,7 C 69 % 0,0 l/m 7,4 km/h (2 Bft) SO 135 7,2 C 12,0 C 6,9 km/h (2 Bft)
12.07.2012 03:00 12,6 C 69 % 0,0 l/m 6,8 km/h (2 Bft) S-SO 157 7,1 C 12,4 C 4,2 km/h (1 Bft)
12.07.2012 03:05 12,5 C 70 % 0,0 l/m 6,8 km/h (2 Bft) O-SO 112 7,2 C 12,2 C 10,5 km/h (2 Bft)
12.07.2012 03:10 12,4 C 71 % 0,0 l/m 6,0 km/h (2 Bft) S-SO 157 7,3 C 12,4 C 8,4 km/h (2 Bft)
12.07.2012 03:15 12,4 C 71 % 0,0 l/m 6,3 km/h (2 Bft) O 90 7,3 C 12,4 C 8,9 km/h (2 Bft)
12.07.2012 03:20 12,5 C 71 % 0,0 l/m 8,0 km/h (2 Bft) SO 135 7,4 C 11,1 C 13,0 km/h (3 Bft)
12.07.2012 03:25 12,5 C 70 % 0,0 l/m 8,9 km/h (2 Bft) SO 135 7,2 C 10,5 C 23,2 km/h (4 Bft)
12.07.2012 03:30 12,6 C 69 % 0,0 l/m 10,1 km/h (2 Bft) SO 135 7,1 C 9,6 C 14,8 km/h (3 Bft)
12.07.2012 03:35 12,8 C 68 % 0,0 l/m 11,3 km/h (2 Bft) SO 135 7,0 C 9,0 C 10,6 km/h (2 Bft)
12.07.2012 03:40 12,7 C 68 % 0,0 l/m 12,2 km/h (2 Bft) O-SO 112 6,9 C 8,5 C 24,9 km/h (4 Bft)
12.07.2012 03:45 12,6 C 69 % 0,0 l/m 11,6 km/h (2 Bft) O-NO 67 7,1 C 9,0 C 18,8 km/h (3 Bft)
12.07.2012 03:50 12,6 C 69 % 0,0 l/m 10,5 km/h (2 Bft) SO 135 7,1 C 9,5 C 17,2 km/h (3 Bft)
12.07.2012 03:55 12,7 C 69 % 0,0 l/m 10,8 km/h (2 Bft) SO 135 7,2 C 9,3 C 9,0 km/h (2 Bft)
12.07.2012 04:00 12,6 C 69 % 0,0 l/m 9,3 km/h (2 Bft) SO 135 7,1 C 10,4 C 8,2 km/h (2 Bft)
12.07.2012 04:05 12,6 C 69 % 0,0 l/m 9,0 km/h (2 Bft) O 90 7,1 C 10,5 C 7,2 km/h (2 Bft)
12.07.2012 04:10 12,5 C 70 % 0,0 l/m 7,7 km/h (2 Bft) O-SO 112 7,2 C 11,5 C 6,9 km/h (2 Bft)
12.07.2012 04:15 12,5 C 70 % 0,0 l/m 7,2 km/h (2 Bft) SO 135 7,2 C 11,9 C 7,6 km/h (2 Bft)
12.07.2012 04:20 12,3 C 71 % 0,0 l/m 6,6 km/h (2 Bft) S 180 7,2 C 12,2 C 4,3 km/h (1 Bft)
12.07.2012 04:25 12,1 C 72 % 0,0 l/m 5,1 km/h (1 Bft) SO 135 7,2 C 12,5 C 5,6 km/h (1 Bft)
12.07.2012 04:30 12,0 C 72 % 0,0 l/m 4,3 km/h (1 Bft) O 90 7,1 C 12,3 C 3,5 km/h (1 Bft)
12.07.2012 04:35 11,9 C 73 % 0,0 l/m 4,0 km/h (1 Bft) O-SO 112 7,2 C 12,3 C 3,7 km/h (1 Bft)
12.07.2012 04:40 11,8 C 73 % 0,0 l/m 3,4 km/h (1 Bft) SO 135 7,1 C 12,0 C 5,0 km/h (1 Bft)
12.07.2012 04:45 11,7 C 74 % 0,0 l/m 3,2 km/h (1 Bft) S-SO 157 7,2 C 11,9 C 3,9 km/h (1 Bft)
12.07.2012 04:50 11,4 C 74 % 0,0 l/m 2,9 km/h (1 Bft) SO 135 6,9 C 11,8 C 4,8 km/h (1 Bft)
12.07.2012 04:55 11,4 C 74 % 0,0 l/m 2,6 km/h (1 Bft) O-SO 112 6,9 C 11,7 C 2,1 km/h (1 Bft)
12.07.2012 05:00 11,3 C 75 % 0,0 l/m 3,2 km/h (1 Bft) SO 135 7,0 C 11,4 C 10,0 km/h (2 Bft)
12.07.2012 05:05 11,4 C 74 % 0,0 l/m 2,6 km/h (1 Bft) SO 135 6,9 C 11,5 C 5,0 km/h (1 Bft)
12.07.2012 05:10 11,4 C 74 % 0,0 l/m 2,9 km/h (1 Bft) SO 135 6,9 C 11,4 C 5,5 km/h (1 Bft)
12.07.2012 05:15 11,3 C 74 % 0,0 l/m 2,9 km/h (1 Bft) SO 135 6,8 C 11,4 C 4,5 km/h (1 Bft)
12.07.2012 05:20 11,3 C 75 % 0,0 l/m 2,9 km/h (1 Bft) O-SO 112 7,1 C 11,3 C 4,3 km/h (1 Bft)
12.07.2012 05:25 11,2 C 75 % 0,0 l/m 2,1 km/h (1 Bft) S-SO 157 6,9 C 11,3 C 0,0 km/h (0 Bft)
12.07.2012 05:30 11,1 C 75 % 0,0 l/m 0,8 km/h (0 Bft) SO 135 6,8 C 11,0 C 3,7 km/h (1 Bft)
12.07.2012 05:35 11,0 C 75 % 0,0 l/m 0,5 km/h (0 Bft) N-NO 22 6,7 C 10,9 C 0,0 km/h (0 Bft)
12.07.2012 05:40 11,0 C 77 % 0,0 l/m 0,6 km/h (0 Bft) N-NO 22 7,1 C 10,7 C 2,7 km/h (1 Bft)
12.07.2012 05:45 10,9 C 78 % 0,0 l/m 0,8 km/h (0 Bft) N 360 7,2 C 10,6 C 2,4 km/h (1 Bft)
12.07.2012 05:50 10,7 C 78 % 0,0 l/m 1,1 km/h (1 Bft) SO 135 7,0 C 10,4 C 2,1 km/h (1 Bft)
12.07.2012 05:55 10,6 C 78 % 0,0 l/m 1,1 km/h (1 Bft) O-SO 112 6,9 C 10,4 C 2,4 km/h (1 Bft)
12.07.2012 06:00 10,6 C 78 % 0,0 l/m 1,0 km/h (0 Bft) N 360 7,0 C 10,4 C 0,0 km/h (0 Bft)
12.07.2012 06:05 10,6 C 77 % 0,0 l/m 0,6 km/h (0 Bft) N-NO 22 6,8 C 10,5 C 0,0 km/h (0 Bft)
12.07.2012 06:10 10,6 C 78 % 0,0 l/m 0,8 km/h (0 Bft) N 360 7,1 C 11,3 C 2,3 km/h (1 Bft)
12.07.2012 06:15 10,6 C 78 % 0,0 l/m 0,8 km/h (0 Bft) NO 45 7,1 C 11,4 C 0,0 km/h (0 Bft)
12.07.2012 06:20 10,6 C 78 % 0,0 l/m 0,3 km/h (0 Bft) O-SO 112 7,1 C 11,1 C 3,1 km/h (1 Bft)
12.07.2012 06:25 10,6 C 78 % 0,0 l/m 1,0 km/h (0 Bft) O 90 7,0 C 11,0 C 2,4 km/h (1 Bft)
12.07.2012 06:30 11,4 C 78 % 0,0 l/m 1,1 km/h (1 Bft) O-SO 112 7,7 C 11,2 C 0,0 km/h (0 Bft)
12.07.2012 06:35 11,9 C 77 % 0,0 l/m 1,0 km/h (0 Bft) O 90 8,0 C 12,1 C 3,7 km/h (1 Bft)
12.07.2012 06:40 12,1 C 76 % 0,0 l/m 1,6 km/h (1 Bft) O 90 8,0 C 12,8 C 4,0 km/h (1 Bft)
12.07.2012 06:45 12,6 C 76 % 0,0 l/m 1,9 km/h (1 Bft) O-SO 112 8,5 C 13,1 C 0,0 km/h (0 Bft)
12.07.2012 06:50 13,8 C 74 % 0,0 l/m 1,8 km/h (1 Bft) SO 135 9,2 C 13,6 C 3,9 km/h (1 Bft)
12.07.2012 06:55 13,5 C 73 % 0,0 l/m 1,9 km/h (1 Bft) O-SO 112 8,8 C 13,7 C 4,8 km/h (1 Bft)
12.07.2012 07:00 12,8 C 73 % 0,0 l/m 2,4 km/h (1 Bft) SO 135 8,1 C 13,5 C 1,9 km/h (1 Bft)
12.07.2012 07:05 12,5 C 74 % 0,0 l/m 2,1 km/h (1 Bft) O 90 8,0 C 13,0 C 2,3 km/h (1 Bft)
12.07.2012 07:10 12,9 C 73 % 0,0 l/m 1,3 km/h (1 Bft) O-SO 112 8,2 C 12,9 C 0,0 km/h (0 Bft)
12.07.2012 07:15 14,0 C 72 % 0,0 l/m 1,6 km/h (1 Bft) O-SO 112 9,0 C 13,0 C 2,3 km/h (1 Bft)
12.07.2012 07:20 17,1 C 60 % 0,0 l/m 3,7 km/h (1 Bft) O-NO 67 9,3 C 15,5 C 7,1 km/h (2 Bft)
12.07.2012 07:25 18,3 C 58 % 0,0 l/m 5,1 km/h (1 Bft) SO 135 10,1 C 17,0 C 7,1 km/h (2 Bft)
12.07.2012 07:30 19,0 C 55 % 0,0 l/m 5,6 km/h (1 Bft) O-SO 112 9,8 C 18,0 C 9,2 km/h (2 Bft)
12.07.2012 07:35 19,5 C 55 % 0,0 l/m 5,8 km/h (2 Bft) O-SO 112 10,2 C 18,5 C 7,1 km/h (2 Bft)
12.07.2012 07:40 19,6 C 52 % 0,0 l/m 5,6 km/h (1 Bft) O-SO 112 9,5 C 19,0 C 7,9 km/h (2 Bft)
12.07.2012 07:45 19,5 C 50 % 0,0 l/m 5,8 km/h (2 Bft) S 180 8,8 C 19,1 C 10,6 km/h (2 Bft)
12.07.2012 07:50 20,3 C 52 % 0,0 l/m 5,6 km/h (1 Bft) S 180 10,1 C 19,3 C 4,8 km/h (1 Bft)
12.07.2012 07:55 20,3 C 48 % 0,0 l/m 5,6 km/h (1 Bft) S-SO 157 8,9 C 19,6 C 10,3 km/h (2 Bft)
12.07.2012 08:00 20,6 C 49 % 0,0 l/m 6,1 km/h (2 Bft) SO 135 9,5 C 19,6 C 8,9 km/h (2 Bft)
12.07.2012 08:05 20,8 C 49 % 0,0 l/m 6,4 km/h (2 Bft) SO 135 9,7 C 19,6 C 8,2 km/h (2 Bft)
12.07.2012 08:10 21,0 C 47 % 0,0 l/m 5,5 km/h (1 Bft) O-SO 112 9,3 C 20,2 C 6,9 km/h (2 Bft)
12.07.2012 08:15 21,4 C 46 % 0,0 l/m 5,0 km/h (1 Bft) O 90 9,3 C 20,2 C 5,3 km/h (1 Bft)
12.07.2012 08:20 21,0 C 47 % 0,0 l/m 5,8 km/h (2 Bft) S 180 9,3 C 20,3 C 6,9 km/h (2 Bft)
12.07.2012 08:25 21,6 C 48 % 0,0 l/m 5,6 km/h (1 Bft) NO 45 10,1 C 20,2 C 4,8 km/h (1 Bft)
12.07.2012 08:30 21,9 C 47 % 0,0 l/m 4,2 km/h (1 Bft) W 270 10,1 C 20,9 C 3,2 km/h (1 Bft)
12.07.2012 08:35 22,1 C 47 % 0,0 l/m 3,4 km/h (1 Bft) S 180 10,3 C 21,3 C 2,9 km/h (1 Bft)
12.07.2012 08:40 21,9 C 46 % 0,0 l/m 2,9 km/h (1 Bft) S 180 10,4 C 21,9 C 4,8 km/h (1 Bft)
12.07.2012 08:45 21,5 C 47 % 0,0 l/m 2,7 km/h (1 Bft) S 180 10,5 C 22,2 C 3,4 km/h (1 Bft)
12.07.2012 08:50 20,9 C 46 % 0,0 l/m 3,7 km/h (1 Bft) S 180 10,6 C 22,3 C 6,6 km/h (2 Bft)
12.07.2012 08:55 20,6 C 46 % 0,0 l/m 4,8 km/h (1 Bft) S-SO 157 9,7 C 21,9 C 4,8 km/h (1 Bft)
12.07.2012 09:00 20,4 C 44 % 0,0 l/m 6,4 km/h (2 Bft) S 180 9,1 C 21,5 C 15,0 km/h (3 Bft)
12.07.2012 09:05 20,3 C 44 % 0,0 l/m 6,9 km/h (2 Bft) SO 135 9,5 C 21,0 C 15,8 km/h (3 Bft)
12.07.2012 09:10 20,4 C 43 % 0,0 l/m 7,1 km/h (2 Bft) S-SO 157 9,1 C 21,0 C 14,5 km/h (3 Bft)
12.07.2012 09:15 20,5 C 43 % 0,0 l/m 6,3 km/h (2 Bft) S 180 9,2 C 21,5 C 7,4 km/h (2 Bft)
12.07.2012 09:20 20,3 C 45 % 0,0 l/m 7,9 km/h (2 Bft) S 180 9,2 C 20,6 C 13,4 km/h (3 Bft)
12.07.2012 09:25 20,2 C 45 % 0,0 l/m 8,7 km/h (2 Bft) SO 135 9,5 C 20,2 C 5,3 km/h (1 Bft)
12.07.2012 09:30 20,5 C 45 % 0,0 l/m 7,4 km/h (2 Bft) O-SO 112 10,0 C 20,8 C 7,2 km/h (2 Bft)
12.07.2012 09:35 20,7 C 43 % 0,0 l/m 7,1 km/h (2 Bft) SO 135 9,1 C 20,9 C 7,6 km/h (2 Bft)
12.07.2012 09:40 20,5 C 42 % 0,0 l/m 8,7 km/h (2 Bft) SO 135 8,4 C 20,2 C 13,7 km/h (3 Bft)
12.07.2012 09:45 20,6 C 44 % 0,0 l/m 9,3 km/h (2 Bft) SO 135 9,1 C 19,7 C 10,1 km/h (2 Bft)
12.07.2012 09:50 20,6 C 44 % 0,0 l/m 10,0 km/h (2 Bft) SO 135 9,1 C 19,5 C 23,7 km/h (4 Bft)
12.07.2012 09:55 20,7 C 45 % 0,0 l/m 10,0 km/h (2 Bft) SO 135 9,2 C 19,5 C 12,7 km/h (3 Bft)
12.07.2012 10:00 21,1 C 42 % 0,0 l/m 9,3 km/h (2 Bft) S 180 9,4 C 20,5 C 6,4 km/h (2 Bft)
12.07.2012 10:05 21,5 C 41 % 0,0 l/m 8,4 km/h (2 Bft) O-SO 112 9,0 C 21,3 C 10,5 km/h (2 Bft)
12.07.2012 10:10 21,3 C 43 % 0,0 l/m 8,5 km/h (2 Bft) S 180 8,5 C 21,4 C 12,9 km/h (3 Bft)
12.07.2012 10:15 18,9 C 48 % 0,0 l/m 7,9 km/h (2 Bft) SO 135 7,6 C 20,0 C 6,0 km/h (2 Bft)
12.07.2012 10:20 21,6 C 45 % 0,0 l/m 7,1 km/h (2 Bft) O-SO 112 9,4 C 21,1 C 19,6 km/h (3 Bft)
12.07.2012 10:25 22,0 C 43 % 0,0 l/m 7,1 km/h (2 Bft) O 90 9,6 C 21,7 C 17,4 km/h (3 Bft)
12.07.2012 10:30 22,0 C 43 % 0,0 l/m 10,1 km/h (2 Bft) SO 135 8,9 C 20,9 C 14,0 km/h (3 Bft)
12.07.2012 10:35 21,9 C 42 % 0,0 l/m 10,6 km/h (2 Bft) S 180 8,4 C 20,5 C 13,8 km/h (3 Bft)
12.07.2012 10:40 21,8 C 43 % 0,0 l/m 11,6 km/h (2 Bft) O 90 8,7 C 19,6 C 14,2 km/h (3 Bft)
12.07.2012 10:45 22,6 C 45 % 0,0 l/m 11,3 km/h (2 Bft) O-SO 112 10,1 C 20,4 C 15,8 km/h (3 Bft)
12.07.2012 10:50 21,9 C 45 % 0,0 l/m 8,5 km/h (2 Bft) O-SO 112 9,4 C 21,3 C 7,2 km/h (2 Bft)
12.07.2012 10:55 21,8 C 44 % 0,0 l/m 9,3 km/h (2 Bft) O-SO 112 9,0 C 20,9 C 12,6 km/h (3 Bft)
12.07.2012 11:00 21,6 C 43 % 0,0 l/m 10,5 km/h (2 Bft) O-NO 67 8,5 C 20,9 C 14,6 km/h (3 Bft)
12.07.2012 11:05 21,0 C 43 % 0,0 l/m 12,1 km/h (2 Bft) S-SO 157 7,9 C 20,1 C 19,2 km/h (3 Bft)
12.07.2012 11:10 21,4 C 46 % 0,0 l/m 11,1 km/h (2 Bft) S-SO 157 9,3 C 20,3 C 9,8 km/h (2 Bft)
12.07.2012 11:15 22,0 C 44 % 0,0 l/m 9,2 km/h (2 Bft) S-SO 157 9,2 C 21,1 C 8,2 km/h (2 Bft)
12.07.2012 11:20 22,3 C 45 % 0,0 l/m 9,7 km/h (2 Bft) S-SO 157 9,8 C 21,4 C 11,1 km/h (2 Bft)
12.07.2012 11:25 22,6 C 45 % 0,0 l/m 8,5 km/h (2 Bft) O 90 10,1 C 22,1 C 4,3 km/h (1 Bft)
12.07.2012 11:30 20,9 C 47 % 0,0 l/m 9,3 km/h (2 Bft) S 180 9,2 C 20,9 C 19,6 km/h (3 Bft)
12.07.2012 11:35 20,4 C 47 % 0,0 l/m 10,0 km/h (2 Bft) SO 135 8,7 C 20,1 C 12,1 km/h (2 Bft)
12.07.2012 11:40 21,6 C 45 % 0,0 l/m 9,3 km/h (2 Bft) S-SO 157 9,2 C 20,8 C 9,0 km/h (2 Bft)
12.07.2012 11:45 20,5 C 47 % 0,0 l/m 8,5 km/h (2 Bft) S-SO 157 8,8 C 21,1 C 10,6 km/h (2 Bft)
12.07.2012 11:50 19,6 C 48 % 0,0 l/m 10,3 km/h (2 Bft) O-SO 112 8,3 C 19,1 C 13,8 km/h (3 Bft)
12.07.2012 11:55 20,2 C 50 % 0,0 l/m 10,5 km/h (2 Bft) S 180 9,4 C 18,7 C 7,2 km/h (2 Bft)
12.07.2012 12:00 19,9 C 50 % 0,0 l/m 10,0 km/h (2 Bft) SO 135 9,2 C 18,5 C 15,9 km/h (3 Bft)
12.07.2012 12:05 21,0 C 47 % 0,0 l/m 9,8 km/h (2 Bft) NW 315 9,3 C 19,4 C 17,4 km/h (3 Bft)
12.07.2012 12:10 20,2 C 50 % 0,0 l/m 10,8 km/h (2 Bft) SO 135 9,4 C 18,6 C 8,4 km/h (2 Bft)
12.07.2012 12:15 19,4 C 50 % 0,0 l/m 10,6 km/h (2 Bft) SO 135 8,7 C 18,6 C 14,2 km/h (3 Bft)
12.07.2012 12:20 19,3 C 52 % 0,0 l/m 9,8 km/h (2 Bft) SO 135 9,2 C 18,5 C 11,9 km/h (2 Bft)
12.07.2012 12:25 18,9 C 51 % 0,0 l/m 9,7 km/h (2 Bft) SO 135 8,5 C 18,3 C 8,9 km/h (2 Bft)
12.07.2012 12:30 19,8 C 52 % 0,0 l/m 9,3 km/h (2 Bft) SO 135 9,7 C 18,6 C 9,2 km/h (2 Bft)
12.07.2012 12:35 19,8 C 52 % 0,0 l/m 9,3 km/h (2 Bft) SO 135 9,7 C 18,9 C 7,1 km/h (2 Bft)
12.07.2012 12:40 19,7 C 52 % 0,0 l/m 7,2 km/h (2 Bft) S-SO 157 9,6 C 20,1 C 4,3 km/h (1 Bft)
12.07.2012 12:45 19,4 C 51 % 0,0 l/m 7,1 km/h (2 Bft) S 180 9,0 C 20,1 C 14,8 km/h (3 Bft)
12.07.2012 12:50 19,5 C 53 % 0,0 l/m 8,4 km/h (2 Bft) O 90 9,7 C 19,2 C 6,6 km/h (2 Bft)
12.07.2012 12:55 19,6 C 53 % 0,0 l/m 8,7 km/h (2 Bft) SO 135 9,8 C 19,2 C 11,3 km/h (2 Bft)
12.07.2012 13:00 19,3 C 52 % 0,0 l/m 8,2 km/h (2 Bft) NO 45 9,2 C 19,4 C 10,1 km/h (2 Bft)
12.07.2012 13:05 18,8 C 53 % 0,0 l/m 8,9 km/h (2 Bft) SO 135 9,0 C 18,8 C 13,0 km/h (3 Bft)
12.07.2012 13:10 18,4 C 53 % 0,0 l/m 9,5 km/h (2 Bft) W-NW 292 8,6 C 17,8 C 9,7 km/h (2 Bft)
12.07.2012 13:15 18,8 C 55 % 0,0 l/m 8,7 km/h (2 Bft) S 180 9,6 C 18,1 C 5,6 km/h (1 Bft)
12.07.2012 13:20 18,6 C 55 % 0,0 l/m 8,7 km/h (2 Bft) SO 135 9,4 C 18,1 C 6,4 km/h (2 Bft)
12.07.2012 13:25 18,9 C 54 % 0,0 l/m 8,9 km/h (2 Bft) O-SO 112 9,4 C 18,3 C 15,6 km/h (3 Bft)
12.07.2012 13:30 18,6 C 54 % 0,0 l/m 9,3 km/h (2 Bft) SW 225 9,1 C 17,9 C 9,7 km/h (2 Bft)
12.07.2012 13:35 19,0 C 52 % 0,0 l/m 10,1 km/h (2 Bft) O-NO 67 8,9 C 17,8 C 15,0 km/h (3 Bft)
12.07.2012 13:40 18,4 C 54 % 0,0 l/m 10,3 km/h (2 Bft) S-SO 157 8,9 C 17,5 C 15,6 km/h (3 Bft)
12.07.2012 13:45 18,2 C 56 % 0,0 l/m 11,1 km/h (2 Bft) S 180 9,3 C 17,0 C 18,7 km/h (3 Bft)
12.07.2012 13:50 17,9 C 57 % 0,0 l/m 9,7 km/h (2 Bft) O-SO 112 9,3 C 17,2 C 7,1 km/h (2 Bft)
12.07.2012 13:55 18,8 C 58 % 0,0 l/m 9,0 km/h (2 Bft) NO 45 10,4 C 17,6 C 12,4 km/h (3 Bft)
12.07.2012 14:00 17,9 C 56 % 0,0 l/m 9,8 km/h (2 Bft) SO 135 9,0 C 17,4 C 13,2 km/h (3 Bft)
12.07.2012 14:05 17,9 C 58 % 0,0 l/m 10,0 km/h (2 Bft) S-SO 157 9,5 C 16,9 C 10,8 km/h (2 Bft)
12.07.2012 14:10 17,5 C 58 % 0,0 l/m 8,4 km/h (2 Bft) S 180 9,1 C 17,1 C 11,3 km/h (2 Bft)
12.07.2012 14:15 17,5 C 59 % 0,0 l/m 7,9 km/h (2 Bft) SO 135 9,4 C 17,3 C 15,4 km/h (3 Bft)
12.07.2012 14:20 16,6 C 60 % 0,0 l/m 7,4 km/h (2 Bft) SO 135 8,8 C 16,8 C 14,6 km/h (3 Bft)
12.07.2012 14:25 16,0 C 60 % 0,0 l/m 8,5 km/h (2 Bft) SO 135 8,2 C 15,8 C 7,1 km/h (2 Bft)
12.07.2012 14:30 15,9 C 63 % 0,0 l/m 8,9 km/h (2 Bft) S-SO 157 8,9 C 15,0 C 8,0 km/h (2 Bft)
12.07.2012 14:35 15,8 C 64 % 0,0 l/m 7,7 km/h (2 Bft) O-SO 112 9,0 C 15,4 C 9,2 km/h (2 Bft)
12.07.2012 14:40 15,7 C 64 % 0,0 l/m 7,7 km/h (2 Bft) SO 135 8,9 C 15,3 C 5,0 km/h (1 Bft)
12.07.2012 14:45 15,9 C 64 % 0,0 l/m 7,7 km/h (2 Bft) SO 135 9,1 C 15,4 C 6,9 km/h (2 Bft)
12.07.2012 14:50 16,0 C 62 % 0,0 l/m 7,4 km/h (2 Bft) SO 135 8,7 C 15,7 C 9,7 km/h (2 Bft)
12.07.2012 14:55 16,6 C 63 % 0,0 l/m 7,2 km/h (2 Bft) O-SO 112 9,5 C 16,1 C 12,1 km/h (2 Bft)
12.07.2012 15:00 16,9 C 60 % 0,0 l/m 6,8 km/h (2 Bft) O-NO 67 9,1 C 16,8 C 6,1 km/h (2 Bft)
12.07.2012 15:05 17,2 C 59 % 0,0 l/m 7,2 km/h (2 Bft) SO 135 9,1 C 16,9 C 7,2 km/h (2 Bft)
12.07.2012 15:10 18,7 C 57 % 0,0 l/m 6,6 km/h (2 Bft) O-SO 112 10,0 C 18,6 C 10,0 km/h (2 Bft)
12.07.2012 15:15 18,2 C 58 % 0,0 l/m 6,6 km/h (2 Bft) O 90 9,8 C 18,7 C 12,6 km/h (3 Bft)
12.07.2012 15:20 18,6 C 57 % 0,0 l/m 7,7 km/h (2 Bft) O 90 9,9 C 18,2 C 11,1 km/h (2 Bft)
12.07.2012 15:25 19,0 C 55 % 0,0 l/m 7,6 km/h (2 Bft) SO 135 9,8 C 18,9 C 11,9 km/h (2 Bft)
12.07.2012 15:30 18,7 C 57 % 0,0 l/m 8,5 km/h (2 Bft) O-SO 112 10,0 C 18,6 C 9,0 km/h (2 Bft)
12.07.2012 15:35 18,4 C 56 % 0,0 l/m 8,0 km/h (2 Bft) S-SO 157 9,5 C 18,7 C 14,8 km/h (3 Bft)
12.07.2012 15:40 18,2 C 57 % 0,0 l/m 6,8 km/h (2 Bft) W 270 9,5 C 18,9 C 8,2 km/h (2 Bft)
12.07.2012 15:45 17,5 C 58 % 0,0 l/m 8,0 km/h (2 Bft) S 180 9,1 C 17,9 C 13,7 km/h (3 Bft)
12.07.2012 15:50 16,6 C 59 % 0,0 l/m 10,1 km/h (2 Bft) SO 135 8,6 C 15,7 C 12,4 km/h (3 Bft)
12.07.2012 15:55 16,3 C 60 % 0,0 l/m 9,7 km/h (2 Bft) S-SO 157 8,5 C 15,3 C 6,1 km/h (2 Bft)
12.07.2012 16:00 16,4 C 59 % 0,0 l/m 8,7 km/h (2 Bft) SO 135 8,4 C 15,5 C 13,5 km/h (3 Bft)
12.07.2012 16:05 16,3 C 60 % 0,0 l/m 8,9 km/h (2 Bft) N 360 8,5 C 15,3 C 14,5 km/h (3 Bft)
12.07.2012 16:10 16,0 C 60 % 0,0 l/m 9,7 km/h (2 Bft) SO 135 8,2 C 14,6 C 8,7 km/h (2 Bft)
12.07.2012 16:15 15,9 C 63 % 0,0 l/m 8,9 km/h (2 Bft) O-SO 112 8,9 C 14,8 C 8,7 km/h (2 Bft)
12.07.2012 16:20 15,8 C 62 % 0,0 l/m 8,4 km/h (2 Bft) SO 135 8,5 C 15,0 C 8,4 km/h (2 Bft)
12.07.2012 16:25 15,8 C 64 % 0,0 l/m 7,9 km/h (2 Bft) O-SO 112 9,0 C 15,2 C 8,7 km/h (2 Bft)
12.07.2012 16:30 15,8 C 65 % 0,0 l/m 6,0 km/h (2 Bft) O-SO 112 9,2 C 15,9 C 9,2 km/h (2 Bft)
12.07.2012 16:35 15,7 C 63 % 0,0 l/m 6,3 km/h (2 Bft) SO 135 8,7 C 15,9 C 10,9 km/h (2 Bft)
12.07.2012 16:40 15,6 C 65 % 0,0 l/m 6,4 km/h (2 Bft) N 360 9,0 C 15,8 C 9,8 km/h (2 Bft)
12.07.2012 16:45 15,5 C 66 % 0,0 l/m 5,6 km/h (1 Bft) O 90 9,2 C 15,7 C 8,2 km/h (2 Bft)
12.07.2012 16:50 15,4 C 66 % 0,0 l/m 4,2 km/h (1 Bft) S 180 9,1 C 15,7 C 2,6 km/h (1 Bft)
12.07.2012 16:55 15,3 C 66 % 0,0 l/m 4,7 km/h (1 Bft) O 90 9,0 C 15,6 C 7,9 km/h (2 Bft)
12.07.2012 17:00 15,3 C 67 % 0,0 l/m 4,8 km/h (1 Bft) S 180 9,2 C 15,5 C 3,7 km/h (1 Bft)
12.07.2012 17:05 15,2 C 67 % 0,0 l/m 5,1 km/h (1 Bft) O-SO 112 9,1 C 15,4 C 5,6 km/h (1 Bft)
12.07.2012 17:10 14,9 C 67 % 0,0 l/m 4,3 km/h (1 Bft) O-SO 112 8,8 C 15,3 C 7,2 km/h (2 Bft)
12.07.2012 17:15 14,7 C 68 % 0,0 l/m 4,0 km/h (1 Bft) O-SO 112 8,9 C 15,0 C 7,4 km/h (2 Bft)
12.07.2012 17:20 14,7 C 68 % 0,0 l/m 4,2 km/h (1 Bft) NO 45 8,9 C 14,9 C 1,6 km/h (1 Bft)
12.07.2012 17:25 14,6 C 68 % 0,0 l/m 4,2 km/h (1 Bft) O-SO 112 8,8 C 14,9 C 9,0 km/h (2 Bft)
12.07.2012 17:30 14,6 C 68 % 0,0 l/m 6,3 km/h (2 Bft) O 90 8,8 C 14,8 C 3,7 km/h (1 Bft)
12.07.2012 17:35 14,5 C 68 % 0,0 l/m 6,8 km/h (2 Bft) O-SO 112 8,7 C 14,6 C 7,6 km/h (2 Bft)
12.07.2012 17:40 14,5 C 68 % 0,0 l/m 4,3 km/h (1 Bft) S-SO 157 8,7 C 14,8 C 9,8 km/h (2 Bft)
12.07.2012 17:45 14,5 C 68 % 0,0 l/m 4,7 km/h (1 Bft) S-SO 157 8,7 C 14,8 C 5,8 km/h (2 Bft)
12.07.2012 17:50 14,5 C 68 % 0,0 l/m 5,0 km/h (1 Bft) SO 135 8,7 C 14,8 C 14,6 km/h (3 Bft)
12.07.2012 17:55 14,4 C 69 % 0,0 l/m 5,0 km/h (1 Bft) S-SO 157 8,8 C 14,8 C 3,9 km/h (1 Bft)
12.07.2012 18:00 14,4 C 69 % 0,0 l/m 5,0 km/h (1 Bft) NO 45 8,8 C 14,6 C 4,0 km/h (1 Bft)
12.07.2012 18:05 14,3 C 69 % 0,0 l/m 4,7 km/h (1 Bft) S-SO 157 8,7 C 14,5 C 8,7 km/h (2 Bft)
12.07.2012 18:10 14,2 C 69 % 0,0 l/m 4,0 km/h (1 Bft) O-SO 112 8,6 C 14,5 C 3,4 km/h (1 Bft)
12.07.2012 18:15 14,2 C 70 % 0,0 l/m 2,6 km/h (1 Bft) S-SO 157 8,8 C 14,4 C 4,5 km/h (1 Bft)
12.07.2012 18:20 14,2 C 70 % 0,0 l/m 2,7 km/h (1 Bft) NO 45 8,8 C 14,4 C 2,6 km/h (1 Bft)
12.07.2012 18:25 14,2 C 70 % 0,0 l/m 3,2 km/h (1 Bft) S-SO 157 8,8 C 14,4 C 6,1 km/h (2 Bft)
12.07.2012 18:30 14,1 C 70 % 0,0 l/m 2,6 km/h (1 Bft) S 180 8,7 C 14,3 C 2,9 km/h (1 Bft)
12.07.2012 18:35 14,1 C 71 % 0,0 l/m 2,4 km/h (1 Bft) NO 45 8,9 C 14,3 C 4,8 km/h (1 Bft)
12.07.2012 18:40 14,1 C 71 % 0,0 l/m 2,6 km/h (1 Bft) O-SO 112 8,9 C 14,2 C 4,7 km/h (1 Bft)
12.07.2012 18:45 14,1 C 71 % 0,0 l/m 3,2 km/h (1 Bft) O-SO 112 8,9 C 14,2 C 8,2 km/h (2 Bft)
12.07.2012 18:50 14,1 C 71 % 0,0 l/m 4,5 km/h (1 Bft) O 90 8,9 C 14,2 C 3,4 km/h (1 Bft)
12.07.2012 18:55 14,1 C 72 % 0,0 l/m 5,1 km/h (1 Bft) O-SO 112 9,1 C 14,2 C 8,0 km/h (2 Bft)
12.07.2012 19:00 14,1 C 72 % 0,0 l/m 3,9 km/h (1 Bft) SO 135 9,1 C 14,2 C 4,5 km/h (1 Bft)
12.07.2012 19:05 14,0 C 72 % 0,0 l/m 3,9 km/h (1 Bft) O-SO 112 9,0 C 14,2 C 3,5 km/h (1 Bft)
12.07.2012 19:10 14,0 C 73 % 0,0 l/m 3,4 km/h (1 Bft) S 180 9,2 C 14,1 C 4,5 km/h (1 Bft)
12.07.2012 19:15 13,9 C 73 % 0,0 l/m 3,2 km/h (1 Bft) O-SO 112 9,1 C 14,0 C 8,2 km/h (2 Bft)
12.07.2012 19:20 13,8 C 73 % 0,0 l/m 3,1 km/h (1 Bft) W-SW 247 9,0 C 13,9 C 2,6 km/h (1 Bft)
12.07.2012 19:25 13,8 C 73 % 0,0 l/m 3,4 km/h (1 Bft) S-SW 202 9,0 C 13,9 C 5,6 km/h (1 Bft)
12.07.2012 19:30 13,7 C 72 % 0,0 l/m 3,7 km/h (1 Bft) SO 135 8,7 C 13,8 C 3,2 km/h (1 Bft)
12.07.2012 19:35 13,7 C 72 % 0,0 l/m 4,0 km/h (1 Bft) SO 135 8,7 C 13,7 C 5,5 km/h (1 Bft)
12.07.2012 19:40 13,6 C 72 % 0,0 l/m 4,2 km/h (1 Bft) O-SO 112 8,6 C 13,7 C 6,9 km/h (2 Bft)
12.07.2012 19:45 13,5 C 72 % 0,0 l/m 4,3 km/h (1 Bft) O-SO 112 8,6 C 13,7 C 7,1 km/h (2 Bft)
12.07.2012 19:50 13,6 C 71 % 0,0 l/m 4,8 km/h (1 Bft) O 90 8,4 C 13,6 C 7,9 km/h (2 Bft)
12.07.2012 19:55 13,5 C 71 % 0,0 l/m 5,3 km/h (1 Bft) SO 135 8,3 C 13,6 C 6,8 km/h (2 Bft)
12.07.2012 20:00 13,5 C 71 % 0,0 l/m 5,6 km/h (1 Bft) SO 135 8,3 C 13,6 C 5,8 km/h (2 Bft)
12.07.2012 20:05 13,5 C 72 % 0,0 l/m 4,7 km/h (1 Bft) O-SO 112 8,6 C 13,6 C 7,9 km/h (2 Bft)
12.07.2012 20:10 13,5 C 72 % 0,0 l/m 3,9 km/h (1 Bft) SO 135 8,6 C 13,6 C 5,3 km/h (1 Bft)
12.07.2012 20:15 13,5 C 71 % 0,0 l/m 4,0 km/h (1 Bft) SO 135 8,3 C 13,6 C 6,0 km/h (2 Bft)
12.07.2012 20:20 13,5 C 72 % 0,0 l/m 3,5 km/h (1 Bft) N-NO 22 8,6 C 13,6 C 6,6 km/h (2 Bft)
12.07.2012 20:25 13,5 C 72 % 0,0 l/m 2,9 km/h (1 Bft) S-SO 157 8,6 C 13,6 C 3,4 km/h (1 Bft)
12.07.2012 20:30 13,4 C 71 % 0,0 l/m 2,7 km/h (1 Bft) SO 135 8,3 C 13,6 C 6,4 km/h (2 Bft)
12.07.2012 20:35 13,4 C 70 % 0,0 l/m 3,2 km/h (1 Bft) SO 135 8,0 C 13,6 C 6,1 km/h (2 Bft)
12.07.2012 20:40 13,4 C 70 % 0,0 l/m 3,9 km/h (1 Bft) O-SO 112 8,0 C 13,6 C 3,4 km/h (1 Bft)
12.07.2012 20:45 13,4 C 69 % 0,0 l/m 3,9 km/h (1 Bft) NO 45 7,8 C 13,6 C 2,9 km/h (1 Bft)
12.07.2012 20:50 13,5 C 69 % 0,0 l/m 3,2 km/h (1 Bft) O-SO 112 7,9 C 13,6 C 4,3 km/h (1 Bft)
12.07.2012 20:55 13,5 C 69 % 0,0 l/m 3,4 km/h (1 Bft) O-SO 112 7,9 C 13,6 C 3,1 km/h (1 Bft)
12.07.2012 21:00 13,4 C 69 % 0,0 l/m 4,0 km/h (1 Bft) O-SO 112 7,8 C 13,6 C 3,7 km/h (1 Bft)
12.07.2012 21:05 13,4 C 69 % 0,0 l/m 3,5 km/h (1 Bft) O-SO 112 7,8 C 13,6 C 4,3 km/h (1 Bft)
12.07.2012 21:10 13,4 C 69 % 0,0 l/m 3,7 km/h (1 Bft) O 90 7,8 C 13,6 C 5,0 km/h (1 Bft)
12.07.2012 21:15 13,4 C 69 % 0,0 l/m 3,9 km/h (1 Bft) O 90 7,8 C 13,6 C 2,9 km/h (1 Bft)
12.07.2012 21:20 13,4 C 68 % 0,0 l/m 3,2 km/h (1 Bft) O-SO 112 7,6 C 13,6 C 3,2 km/h (1 Bft)
12.07.2012 21:25 13,3 C 68 % 0,0 l/m 3,4 km/h (1 Bft) N-NO 22 7,5 C 13,6 C 5,1 km/h (1 Bft)
12.07.2012 21:30 13,3 C 68 % 0,0 l/m 3,5 km/h (1 Bft) NO 45 7,5 C 13,6 C 6,1 km/h (2 Bft)
12.07.2012 21:35 13,3 C 68 % 0,0 l/m 3,2 km/h (1 Bft) NO 45 7,5 C 13,6 C 4,5 km/h (1 Bft)
12.07.2012 21:40 13,3 C 68 % 0,0 l/m 2,6 km/h (1 Bft) NO 45 7,5 C 13,6 C 1,9 km/h (1 Bft)
12.07.2012 21:45 13,3 C 68 % 0,0 l/m 2,1 km/h (1 Bft) O 90 7,5 C 13,5 C 0,0 km/h (0 Bft)
12.07.2012 21:50 13,2 C 69 % 0,0 l/m 1,6 km/h (1 Bft) O-SO 112 7,6 C 13,4 C 7,2 km/h (2 Bft)
12.07.2012 21:55 13,2 C 69 % 0,0 l/m 1,8 km/h (1 Bft) SO 135 7,6 C 13,4 C 2,3 km/h (1 Bft)
12.07.2012 22:00 13,1 C 70 % 0,0 l/m 1,4 km/h (1 Bft) N-NO 22 7,8 C 13,3 C 1,6 km/h (1 Bft)
12.07.2012 22:05 13,0 C 70 % 0,0 l/m 1,0 km/h (0 Bft) SO 135 7,7 C 13,3 C 2,1 km/h (1 Bft)
12.07.2012 22:10 12,9 C 72 % 0,0 l/m 1,8 km/h (1 Bft) SO 135 8,0 C 13,3 C 4,8 km/h (1 Bft)
12.07.2012 22:15 12,9 C 72 % 0,0 l/m 1,3 km/h (1 Bft) O-SO 112 8,0 C 13,3 C 2,7 km/h (1 Bft)
12.07.2012 22:20 12,9 C 73 % 0,0 l/m 0,6 km/h (0 Bft) SO 135 8,2 C 13,2 C 0,0 km/h (0 Bft)
12.07.2012 22:25 12,9 C 73 % 0,0 l/m 1,0 km/h (0 Bft) O-SO 112 8,2 C 13,3 C 0,0 km/h (0 Bft)
12.07.2012 22:30 12,9 C 74 % 0,0 l/m 0,8 km/h (0 Bft) O-SO 112 8,4 C 13,3 C 0,0 km/h (0 Bft)
12.07.2012 22:35 12,9 C 74 % 0,0 l/m 0,3 km/h (0 Bft) O-SO 112 8,4 C 13,2 C 0,0 km/h (0 Bft)
12.07.2012 22:40 12,9 C 73 % 0,0 l/m 0,0 km/h (0 Bft) N-NO 22 8,2 C 13,1 C 0,0 km/h (0 Bft)
12.07.2012 22:45 12,9 C 73 % 0,0 l/m 0,2 km/h (0 Bft) N 360 8,2 C 13,0 C 0,0 km/h (0 Bft)
12.07.2012 22:50 12,9 C 74 % 0,0 l/m 0,3 km/h (0 Bft) NO 45 8,4 C 12,9 C 0,0 km/h (0 Bft)
12.07.2012 22:55 13,0 C 73 % 0,0 l/m 0,3 km/h (0 Bft) N-NO 22 8,3 C 12,9 C 0,0 km/h (0 Bft)
12.07.2012 23:00 12,8 C 72 % 0,0 l/m 0,3 km/h (0 Bft) N 360 7,9 C 12,8 C 0,0 km/h (0 Bft)
12.07.2012 23:05 12,8 C 72 % 0,0 l/m 0,3 km/h (0 Bft) N-NO 22 7,9 C 12,8 C 0,0 km/h (0 Bft)
12.07.2012 23:10 12,8 C 72 % 0,0 l/m 0,2 km/h (0 Bft) N-NO 22 7,9 C 12,8 C 0,0 km/h (0 Bft)
12.07.2012 23:15 12,8 C 73 % 0,0 l/m 0,2 km/h (0 Bft) N-NO 22 8,1 C 12,8 C 0,0 km/h (0 Bft)
12.07.2012 23:20 12,8 C 73 % 0,0 l/m 0,2 km/h (0 Bft) N 360 8,1 C 12,7 C 1,6 km/h (1 Bft)
12.07.2012 23:25 12,8 C 73 % 0,0 l/m 0,5 km/h (0 Bft) N 360 8,1 C 12,7 C 2,9 km/h (1 Bft)
12.07.2012 23:30 12,7 C 75 % 0,0 l/m 1,0 km/h (0 Bft) N 360 8,4 C 12,7 C 1,9 km/h (1 Bft)
12.07.2012 23:35 12,7 C 76 % 0,0 l/m 1,3 km/h (1 Bft) N-NO 22 8,6 C 12,6 C 1,6 km/h (1 Bft)
12.07.2012 23:40 12,7 C 76 % 0,0 l/m 1,4 km/h (1 Bft) N 360 8,6 C 12,6 C 2,3 km/h (1 Bft)
12.07.2012 23:45 12,7 C 76 % 0,0 l/m 1,3 km/h (1 Bft) N-NO 22 8,6 C 12,6 C 2,3 km/h (1 Bft)
12.07.2012 23:50 12,7 C 75 % 0,0 l/m 1,1 km/h (1 Bft) NO 45 8,4 C 12,6 C 1,9 km/h (1 Bft)
12.07.2012 23:55 12,7 C 75 % 0,0 l/m 0,6 km/h (0 Bft) N-NO 22 8,4 C 12,6 C 0,0 km/h (0 Bft)
_ Min-Zeit 06:25 10:05 - 22:40 - - 05:35 03:40 23:55
Minimum _ 10,6 C 41 % - 0,0 km/h (0 Bft) - - 6,7 C 8,5 C 0,0 km/h (0 Bft)
_ Max-Zeit 11:25 00:05 23:55 03:40 - - 00:05 08:50 03:40
Maximum _ 22,6 C 83 % 0,0 l/m 12,2 km/h
O-SO (2 Bft)
- - 11,1 C 22,3 C 24,9 km/h
O-SO (4 Bft)
Durchschnitt _ 15,5 C 64 % #0,0 l/m 5,7 km/h (1 Bft) SO - 8,6 C 15,2 C 7,5 km/h (2 Bft)